Location: El Nido
(33.8656°N, 118.3615°W)
Time: 02:17:29
(UTC+00:00)

Cosmos 1300 - Pass Details

Date: 03 August 2024
Orbit: 455 x 456 km, 82.5° (Epoch: 08 September)

Event Time Altitude Azimuth Distance (km) Brightness Sun altitude
Exits shadow 12:27:41 11° 234° (SW) 1,581 4.5 -8.3°
Maximum altitude 12:30:14 20° 282° (WNW) 1,134 4.0 -7.8°
Drops below altitude 10° 12:32:57 10° 332° (NNW) 1,635 5.2 -7.3°
Sets 12:35:26 0° 350° (N) 2,516 6.4 -6.8°
